| time (UTC) | temp F | wind direction | speed knots | gust knots | rain 1hr in | rain 24hr in | rain mn in | humidity % | barometer mb |
| 20260504222953 | 62 | 0.0 | 0.0 | 0.00 | 0.00 | 0.00 | 35 | 1003.6 | |
| 20260504222652 | 62 | 0.0 | 0.0 | 0.00 | 0.00 | 0.00 | 35 | 1003.6 | |
| 20260504221744 | 63 | 0.0 | 0.0 | 0.00 | 0.00 | 0.00 | 34 | 1003.7 | |
| 20260504221441 | 63 | 0.0 | 0.0 | 0.00 | 0.00 | 0.00 | 34 | 1003.7 | |
| 20260504221138 | 63 | 0.0 | 0.0 | 0.00 | 0.00 | 0.00 | 34 | 1003.7 | |
| 20260504220835 | 63 | 0.0 | 0.0 | 0.00 | 0.00 | 0.00 | 34 | 1003.7 | |
| 20260504220533 | 63 | 0.0 | 0.0 | 0.00 | 0.00 | 0.00 | 34 | 1003.6 | |
| 20260504220230 | 63 | 0.0 | 0.0 | 0.00 | 0.00 | 0.00 | 34 | 1003.7 | |
| 20260504215322 | 63 | 0.0 | 0.0 | 0.00 | 0.00 | 0.00 | 34 | 1003.7 | |
| 20260504214717 | 64 | 0.0 | 0.0 | 0.00 | 0.00 | 0.00 | 33 | 1003.7 | |
| 20260504214414 | 64 | 0.0 | 0.0 | 0.00 | 0.00 | 0.00 | 33 | 1003.7 | |
| 20260504214111 | 64 | 0.0 | 0.0 | 0.00 | 0.00 | 0.00 | 33 | 1003.7 | |
| 20260504213810 | 64 | 0.0 | 0.0 | 0.00 | 0.00 | 0.00 | 33 | 1003.8 | |
| 20260504213204 | 64 | 0.0 | 0.0 | 0.00 | 0.00 | 0.00 | 34 | 1003.8 | |
| 20260504212600 | 63 | 0.0 | 0.0 | 0.00 | 0.00 | 0.00 | 34 | 1003.8 | |
| 20260504211955 | 64 | 0.0 | 0.0 | 0.00 | 0.00 | 0.00 | 33 | 1003.8 | |
| 20260504151146 | 83 | 0.0 | 0.0 | 0.00 | 0.00 | 0.00 | 19 | 1003.3 | |
| 20260504150540 | 82 | 0.0 | 0.0 | 0.00 | 0.00 | 0.00 | 19 | 1003.4 | |
| 20260504150238 | 85 | 0.0 | 0.0 | 0.00 | 0.00 | 0.00 | 17 | 1003.5 | |
| 20260504140752 | 90 | 0.0 | 0.0 | 0.00 | 0.00 | 0.00 | 16 | 1003.9 | |
| 20260504140449 | 90 | 0.0 | 0.0 | 0.00 | 0.00 | 0.00 | 16 | 1003.9 | |
| 20260504140146 | 89 | 0.0 | 0.0 | 0.00 | 0.00 | 0.00 | 17 | 1003.9 | |
| 20260504130658 | 80 | 0.0 | 0.0 | 0.00 | 0.00 | 0.00 | 20 | 1003.9 | |
| 20260504110513 | 68 | 0.0 | 0.0 | 0.00 | 0.00 | 0.00 | 28 | 1004.3 | |
| 20260504100415 | 66 | 0.0 | 0.0 | 0.00 | 0.00 | 0.00 | 30 | 1004.5 | |
| 20260504081141 | 65 | 0.0 | 0.0 | 0.00 | 0.00 | 0.00 | 32 | 1004.5 | |
| 20260504080838 | 64 | 0.0 | 0.0 | 0.00 | 0.00 | 0.00 | 33 | 1004.5 | |
| 20260504080535 | 63 | 0.0 | 0.0 | 0.00 | 0.00 | 0.00 | 34 | 1004.5 | |
| 20260504080232 | 62 | 0.0 | 0.0 | 0.00 | 0.00 | 0.00 | 35 | 1004.6 | |
| 20260504050556 | 62 | 0.0 | 0.0 | 0.00 | 0.00 | 0.00 | 31 | 1003.4 | |
| 20260504045951 | 61 | 0.0 | 0.0 | 0.00 | 0.00 | 0.00 | 32 | 1003.4 | |
| 20260504044743 | 62 | 0.0 | 0.0 | 0.00 | 0.00 | 0.00 | 31 | 1003.3 | |
| 20260504044138 | 62 | 0.0 | 0.0 | 0.00 | 0.00 | 0.00 | 30 | 1003.4 | |
| 20260504043835 | 62 | 0.0 | 0.0 | 0.00 | 0.00 | 0.00 | 30 | 1003.4 | |
| 20260504043231 | 63 | 0.0 | 0.0 | 0.00 | 0.00 | 0.00 | 30 | 1003.2 | |
| 20260504042319 | 64 | 0.0 | 0.0 | 0.00 | 0.00 | 0.00 | 29 | 1003.1 | |
| 20260504042018 | 64 | 0.0 | 0.0 | 0.00 | 0.00 | 0.00 | 29 | 1003.0 | |
| 20260504041716 | 65 | 0.0 | 0.0 | 0.00 | 0.00 | 0.00 | 28 | 1002.9 | |
| 20260504040808 | 65 | 0.0 | 0.0 | 0.00 | 0.00 | 0.00 | 29 | 1002.9 | |
| 20260504040505 | 65 | 0.0 | 0.0 | 0.00 | 0.00 | 0.00 | 29 | 1002.9 | |
| 20260504040204 | 65 | 0.0 | 0.0 | 0.00 | 0.00 | 0.00 | 29 | 1002.8 | |
| 20260504035600 | 65 | 0.0 | 0.0 | 0.00 | 0.00 | 0.00 | 29 | 1002.8 | |
| 20260504035257 | 66 | 0.0 | 0.0 | 0.00 | 0.00 | 0.00 | 28 | 1002.7 | |
| 20260504034955 | 66 | 0.0 | 0.0 | 0.00 | 0.00 | 0.00 | 28 | 1002.6 | |
| 20260504034654 | 66 | 0.0 | 0.0 | 0.00 | 0.00 | 0.00 | 28 | 1002.6 | |
| 20260504034349 | 66 | 0.0 | 0.0 | 0.00 | 0.00 | 0.00 | 28 | 1002.7 | |
| 20260504033744 | 66 | 0.0 | 0.0 | 0.00 | 0.00 | 0.00 | 28 | 1002.7 | |
| 20260504033441 | 66 | 0.0 | 0.0 | 0.00 | 0.00 | 0.00 | 28 | 1002.7 | |
| 20260504032837 | 66 | 0.0 | 0.0 | 0.00 | 0.00 | 0.00 | 28 | 1002.8 | |
| 20260504032534 | 66 | 0.0 | 0.0 | 0.00 | 0.00 | 0.00 | 28 | 1002.8 | |
| 20260504032231 | 66 | 0.0 | 0.0 | 0.00 | 0.00 | 0.00 | 27 | 1002.9 | |
| 20260504031628 | 66 | 0.0 | 0.0 | 0.00 | 0.00 | 0.00 | 27 | 1003.1 | |
| 20260504030722 | 66 | 0.0 | 0.0 | 0.00 | 0.00 | 0.00 | 27 | 1003.2 | |
| 20260504030420 | 66 | 0.0 | 0.0 | 0.00 | 0.00 | 0.00 | 27 | 1003.2 | |
| 20260504030119 | 66 | 0.0 | 0.0 | 0.00 | 0.00 | 0.00 | 26 | 1003.2 | |
| 20260504025515 | 65 | 0.0 | 0.0 | 0.00 | 0.00 | 0.00 | 27 | 1003.2 | |
| 20260504025212 | 66 | 0.0 | 0.0 | 0.00 | 0.00 | 0.00 | 26 | 1003.1 | |
| 20260504023357 | 65 | 0.0 | 0.0 | 0.00 | 0.00 | 0.00 | 26 | 1003.1 | |
| 20260504022753 | 66 | 0.0 | 0.0 | 0.00 | 0.00 | 0.00 | 25 | 1003.2 | |
| 20260504022450 | 66 | 0.0 | 0.0 | 0.00 | 0.00 | 0.00 | 25 | 1003.3 | |
| 20260504021543 | 67 | 0.0 | 0.0 | 0.00 | 0.00 | 0.00 | 24 | 1003.2 | |
| 20260504021241 | 67 | 0.0 | 0.0 | 0.00 | 0.00 | 0.00 | 24 | 1003.2 | |
| 20260504020938 | 66 | 0.0 | 0.0 | 0.00 | 0.00 | 0.00 | 24 | 1003.1 | |
| 20260504020335 | 66 | 0.0 | 0.0 | 0.00 | 0.00 | 0.00 | 24 | 1003.0 | |
| 20260504020032 | 66 | 0.0 | 0.0 | 0.00 | 0.00 | 0.00 | 24 | 1003.0 | |
| 20260504015731 | 67 | 0.0 | 0.0 | 0.00 | 0.00 | 0.00 | 23 | 1003.0 | |
| 20260504015428 | 67 | 0.0 | 0.0 | 0.00 | 0.00 | 0.00 | 23 | 1003.1 | |
| 20260504014822 | 67 | 0.0 | 0.0 | 0.00 | 0.00 | 0.00 | 23 | 1003.1 | |
| 20260504014219 | 67 | 0.0 | 0.0 | 0.00 | 0.00 | 0.00 | 23 | 1003.1 | |
| 20260504013917 | 67 | 0.0 | 0.0 | 0.00 | 0.00 | 0.00 | 23 | 1003.1 | |
| 20260504013615 | 66 | 0.0 | 0.0 | 0.00 | 0.00 | 0.00 | 23 | 1003.0 | |
| 20260504013312 | 67 | 0.0 | 0.0 | 0.00 | 0.00 | 0.00 | 23 | 1003.0 | |
| 20260504013010 | 67 | 0.0 | 0.0 | 0.00 | 0.00 | 0.00 | 23 | 1002.9 | |
| 20260504012709 | 68 | 0.0 | 0.0 | 0.00 | 0.00 | 0.00 | 23 | 1002.8 | |
| 20260504012407 | 68 | 0.0 | 0.0 | 0.00 | 0.00 | 0.00 | 23 | 1002.7 | |
| 20260504012103 | 68 | 0.0 | 0.0 | 0.00 | 0.00 | 0.00 | 23 | 1002.7 | |
| 20260504011459 | 68 | 0.0 | 0.0 | 0.00 | 0.00 | 0.00 | 23 | 1002.7 | |
| 20260504011156 | 68 | 0.0 | 0.0 | 0.00 | 0.00 | 0.00 | 23 | 1002.6 | |
| 20260504010551 | 68 | 0.0 | 0.0 | 0.00 | 0.00 | 0.00 | 22 | 1002.6 | |
| 20260504010249 | 68 | 0.0 | 0.0 | 0.00 | 0.00 | 0.00 | 22 | 1002.6 | |
| 20260504005947 | 68 | 0.0 | 0.0 | 0.00 | 0.00 | 0.00 | 23 | 1002.5 | |
| 20260504005715 | 68 | 0.0 | 0.0 | 0.00 | 0.00 | 0.00 | 23 | 1002.5 | |
| 20260504005345 | 68 | 0.0 | 0.0 | 0.00 | 0.00 | 0.00 | 22 | 1002.5 | |
| 20260504004742 | 68 | 0.0 | 0.0 | 0.00 | 0.00 | 0.00 | 22 | 1002.4 | |
| 20260504004439 | 68 | 0.0 | 0.0 | 0.00 | 0.00 | 0.00 | 22 | 1002.4 | |
| 20260504004137 | 68 | 0.0 | 0.0 | 0.00 | 0.00 | 0.00 | 22 | 1002.5 | |
| 20260504003835 | 69 | 0.0 | 0.0 | 0.00 | 0.00 | 0.00 | 22 | 1002.5 | |
| 20260504003534 | 69 | 0.0 | 0.0 | 0.00 | 0.00 | 0.00 | 22 | 1002.4 | |
| 20260504003231 | 68 | 0.0 | 0.0 | 0.00 | 0.00 | 0.00 | 22 | 1002.4 | |
| 20260504002627 | 68 | 0.0 | 0.0 | 0.00 | 0.00 | 0.00 | 22 | 1002.4 | |
| 20260504002324 | 68 | 0.0 | 0.0 | 0.00 | 0.00 | 0.00 | 22 | 1002.5 | |
| 20260504001718 | 68 | 0.0 | 0.0 | 0.00 | 0.00 | 0.00 | 22 | 1002.5 | |
| 20260504001417 | 68 | 0.0 | 0.0 | 0.00 | 0.00 | 0.00 | 22 | 1002.5 | |
| 20260504000812 | 68 | 0.0 | 0.0 | 0.00 | 0.00 | 0.00 | 22 | 1002.5 | |
| 20260504000206 | 68 | 0.0 | 0.0 | 0.00 | 0.00 | 0.00 | 22 | 1002.5 | |
| 20260503235904 | 68 | 0.0 | 0.0 | 0.00 | 0.00 | 0.00 | 22 | 1002.5 | |
| 20260503235558 | 68 | 0.0 | 0.0 | 0.00 | 0.00 | 0.00 | 22 | 1002.5 | |
| 20260503234954 | 67 | 0.0 | 0.0 | 0.00 | 0.00 | 0.00 | 22 | 1002.5 | |
| 20260503234651 | 65 | 0.0 | 0.0 | 0.00 | 0.00 | 0.00 | 23 | 1002.5 | |
| 20260503234047 | 65 | 0.0 | 0.0 | 0.00 | 0.00 | 0.00 | 23 | 1002.5 | |
| 20260503233745 | 67 | 0.0 | 0.0 | 0.00 | 0.00 | 0.00 | 22 | 1002.5 | |
| 20260503233443 | 65 | 0.0 | 0.0 | 0.00 | 0.00 | 0.00 | 22 | 1002.4 | |
| 20260503233142 | 67 | 0.0 | 0.0 | 0.00 | 0.00 | 0.00 | 21 | 1002.3 | |
| 20260503232539 | 66 | 0.0 | 0.0 | 0.00 | 0.00 | 0.00 | 22 | 1002.5 | |
| 20260503231631 | 66 | 0.0 | 0.0 | 0.00 | 0.00 | 0.00 | 22 | 1002.3 | |
| 20260503231028 | 66 | 0.0 | 0.0 | 0.00 | 0.00 | 0.00 | 22 | 1002.3 | |
| 20260503230725 | 67 | 0.0 | 0.0 | 0.00 | 0.00 | 0.00 | 21 | 1002.3 | |
| 20260503230422 | 67 | 0.0 | 0.0 | 0.00 | 0.00 | 0.00 | 21 | 1002.3 | |
| 20260503230121 | 66 | 0.0 | 0.0 | 0.00 | 0.00 | 0.00 | 21 | 1002.3 | |
| 20260503225214 | 65 | 0.0 | 0.0 | 0.00 | 0.00 | 0.00 | 22 | 1002.4 | |
| 20260503223956 | 62 | 0.0 | 0.0 | 0.00 | 0.00 | 0.00 | 24 | 1002.4 | |
| 20260503223654 | 62 | 0.0 | 0.0 | 0.00 | 0.00 | 0.00 | 24 | 1002.3 | |
| 20260503223351 | 61 | 0.0 | 0.0 | 0.00 | 0.00 | 0.00 | 24 | 1002.2 |